Total_Precipitation_Accumulation
1.30 1.33 1.95 3.05 3.38 2.74 2.34 1.76 1.10 1.11 0.94 0.63 0.51 0.56 0.90 1.44 1.62 1.79 1.78 1.42 0.87 0.67 0.79 1.30 1.78 1.64 1.51 1.45 1.45 1.54 1.62 1.57 1.35 1.27 1.22 1.10 0.95 0.85 0.78 0.70 0.66 0.63 0.65 0.58 0.55 0.60 0.69 0.74 0.78
1.17 1.85 2.70 3.60 3.11 2.43 2.33 1.73 1.27 0.96 0.63 0.44 0.42 0.46 0.70 0.76 0.66 1.02 1.87 1.71 0.86 0.70 0.77 1.00 1.60 1.68 1.59 1.51 1.49 1.48 1.46 1.43 1.27 1.18 1.13 1.03 0.98 0.89 0.84 0.75 0.68 0.58 0.53 0.53 0.56 0.55 0.60 0.65 0.68
1.51 2.38 3.26 3.28 2.44 2.21 2.22 1.57 1.09 0.60 0.42 0.43 0.49 0.48 0.64 0.79 0.83 1.28 1.73 1.23 0.81 0.75 0.83 1.13 1.66 1.65 1.60 1.57 1.57 1.61 1.49 1.42 1.27 1.08 1.06 1.02 1.01 0.90 0.87 0.78 0.66 0.58 0.56 0.53 0.56 0.55 0.59 0.67 0.67
1.81 2.60 2.84 2.47 2.06 1.64 1.34 1.17 0.79 0.66 0.51 0.33 0.42 0.55 0.50 0.74 0.96 1.20 1.07 0.75 0.71 0.80 0.87 1.14 1.54 1.59 1.56 1.55 1.57 1.55 1.42 1.33 1.22 1.05 1.04 1.08 1.06 0.96 0.90 0.81 0.71 0.62 0.62 0.57 0.59 0.60 0.68 0.70 0.67
2.12 2.58 2.43 1.99 1.89 1.44 1.03 0.86 0.69 0.82 0.73 0.45 0.39 0.59 0.68 0.92 1.01 1.04 0.94 0.74 0.74 0.82 0.85 1.09 1.48 1.52 1.54 1.45 1.28 1.30 1.31 1.23 1.10 1.03 0.99 0.99 0.98 0.94 0.88 0.90 0.83 0.73 0.70 0.65 0.64 0.64 0.64 0.67 0.71
2.27 2.26 2.10 1.93 1.97 1.64 1.33 0.96 0.78 0.87 0.69 0.45 0.42 0.65 0.81 1.06 1.20 1.11 0.96 0.96 0.92 0.90 0.83 0.94 1.28 1.37 1.36 1.29 1.24 1.30 1.28 1.17 1.02 0.94 0.92 0.92 0.94 0.86 0.79 0.77 0.76 0.76 0.76 0.73 0.68 0.67 0.60 0.63 0.74
2.46 2.25 1.88 1.60 1.82 2.10 1.61 1.03 0.94 0.93 0.86 0.63 0.45 0.73 0.89 1.09 1.19 1.01 0.95 1.13 1.26 1.23 1.05 0.93 1.02 1.17 1.24 1.31 1.31 1.38 1.39 1.28 1.11 0.95 0.92 0.90 0.82 0.69 0.63 0.68 0.71 0.73 0.72 0.73 0.72 0.71 0.66 0.68 0.80
2.08 2.08 1.70 1.65 1.89 2.20 1.60 1.05 0.84 0.82 0.85 0.55 0.49 0.81 1.05 1.01 1.08 1.03 0.96 1.08 1.17 1.22 1.19 1.07 1.01 1.06 1.11 1.20 1.39 1.53 1.63 1.67 1.39 1.06 0.98 0.87 0.72 0.63 0.66 0.66 0.71 0.76 0.81 0.79 0.79 0.80 0.77 0.84 0.86
1.99 2.26 2.06 2.14 2.09 1.76 1.21 1.13 0.83 0.63 0.71 0.66 0.54 0.58 0.73 0.69 0.73 0.86 0.94 0.93 0.87 0.84 0.92 0.98 0.98 1.05 1.02 1.04 1.18 1.46 1.65 1.78 1.46 1.04 1.06 0.91 0.65 0.64 0.71 0.71 0.88 0.96 0.98 0.96 0.99 1.01 1.01 1.00 0.94
2.08 2.10 1.87 1.64 1.45 1.29 1.15 1.04 0.82 0.83 0.99 0.91 0.75 0.65 0.65 0.64 0.69 0.78 0.79 0.79 0.71 0.67 0.63 0.65 0.68 0.74 0.81 0.88 1.13 1.39 1.46 1.57 1.28 1.06 1.10 1.00 1.03 0.96 0.75 0.76 1.01 1.17 1.22 1.12 1.10 1.17 1.09 0.93 0.78
1.61 1.67 1.32 1.09 0.85 0.88 0.92 0.84 0.67 0.79 1.02 0.80 0.69 0.68 0.69 0.73 0.71 0.73 0.73 0.64 0.57 0.51 0.49 0.47 0.49 0.50 0.61 0.84 1.12 1.35 1.43 1.50 1.48 1.49 1.32 1.25 1.19 0.99 0.82 0.78 0.85 0.94 1.03 0.98 1.08 1.09 0.94 0.85 0.75
1.47 1.27 1.05 0.98 0.74 0.77 0.76 0.71 0.76 0.70 0.68 0.52 0.47 0.54 0.69 0.78 0.72 0.65 0.67 0.66 0.59 0.54 0.52 0.45 0.37 0.38 0.48 0.63 0.85 1.15 1.28 1.35 1.36 1.35 1.11 1.16 1.16 0.97 0.91 1.00 1.04 1.00 0.99 1.14 1.19 1.17 1.12 0.94 0.77
1.42 1.20 0.91 0.69 0.65 0.63 0.65 0.69 0.71 0.63 0.51 0.46 0.45 0.54 0.71 0.82 0.78 0.67 0.59 0.55 0.56 0.63 0.70 0.66 0.51 0.45 0.50 0.56 0.59 0.75 0.91 0.98 1.20 1.28 0.98 0.95 0.96 1.00 1.03 0.95 1.10 1.16 1.17 1.17 1.18 1.10 1.06 1.07 0.94
1.24 1.00 0.80 0.65 0.62 0.59 0.64 0.65 0.63 0.70 0.53 0.50 0.52 0.61 0.72 0.80 0.80 0.66 0.57 0.49 0.46 0.48 0.59 0.63 0.62 0.64 0.63 0.55 0.47 0.48 0.54 0.65 0.77 0.80 0.74 0.77 0.79 0.89 1.07 1.01 1.00 1.08 1.26 1.32 1.27 1.17 1.22 1.23 1.06
0.84 0.86 0.86 0.74 0.68 0.67 0.73 0.86 0.63 0.59 0.51 0.50 0.53 0.62 0.61 0.61 0.61 0.53 0.47 0.39 0.38 0.40 0.42 0.50 0.55 0.62 0.67 0.71 0.66 0.52 0.52 0.58 0.59 0.60 0.64 0.70 0.70 0.83 1.00 0.96 0.88 0.88 1.05 1.24 1.37 1.40 1.38 1.25 1.16
0.98 0.94 1.17 0.90 0.79 0.71 0.84 0.92 0.55 0.52 0.51 0.49 0.52 0.64 0.61 0.48 0.42 0.40 0.41 0.41 0.37 0.39 0.37 0.41 0.42 0.49 0.60 0.73 0.78 0.72 0.67 0.62 0.56 0.53 0.48 0.51 0.52 0.61 0.81 0.89 0.81 0.82 1.01 1.23 1.43 1.55 1.58 1.45 1.41
1.23 1.13 1.03 0.92 0.77 0.66 0.63 0.62 0.49 0.45 0.44 0.44 0.46 0.56 0.56 0.42 0.36 0.32 0.30 0.32 0.35 0.36 0.35 0.35 0.37 0.40 0.48 0.60 0.66 0.64 0.61 0.57 0.55 0.54 0.43 0.40 0.42 0.53 0.74 0.93 0.98 0.99 1.10 1.24 1.29 1.51 1.61 1.68 1.60
0.97 0.84 0.80 0.72 0.62 0.56 0.50 0.43 0.43 0.38 0.37 0.41 0.43 0.48 0.47 0.34 0.28 0.26 0.26 0.29 0.34 0.35 0.35 0.35 0.35 0.36 0.39 0.42 0.49 0.53 0.48 0.47 0.52 0.50 0.49 0.52 0.59 0.65 0.85 1.09 1.18 1.30 1.34 1.41 1.57 1.87 1.90 1.79 1.80
0.74 0.69 0.64 0.51 0.42 0.44 0.41 0.40 0.42 0.39 0.36 0.37 0.39 0.37 0.41 0.34 0.30 0.22 0.20 0.20 0.26 0.29 0.30 0.31 0.34 0.35 0.33 0.29 0.33 0.38 0.37 0.46 0.53 0.59 0.64 0.70 0.73 0.80 1.03 1.24 1.49 1.63 1.52 1.55 1.76 2.03 2.21 2.06 1.92
0.74 0.74 0.69 0.61 0.44 0.41 0.40 0.41 0.38 0.36 0.34 0.29 0.27 0.26 0.31 0.30 0.27 0.22 0.20 0.17 0.16 0.18 0.21 0.27 0.27 0.26 0.25 0.23 0.27 0.34 0.41 0.47 0.60 0.75 0.85 0.88 0.86 0.91 0.97 1.18 1.40 1.49 1.55 1.61 1.74 1.97 2.32 2.20 1.98
0.66 0.62 0.56 0.63 0.55 0.49 0.52 0.53 0.42 0.39 0.35 0.29 0.23 0.23 0.28 0.27 0.23 0.21 0.20 0.18 0.14 0.16 0.18 0.22 0.25 0.25 0.23 0.29 0.46 0.72 0.96 1.04 1.05 1.06 1.20 1.29 1.26 1.21 1.18 1.21 1.37 1.47 1.61 1.69 1.74 1.78 2.08 2.22 2.10
0.70 0.51 0.43 0.52 0.66 0.63 0.52 0.58 0.40 0.38 0.39 0.33 0.27 0.24 0.25 0.27 0.25 0.21 0.18 0.18 0.14 0.15 0.19 0.21 0.23 0.28 0.29 0.43 0.75 1.13 1.43 1.51 1.51 1.63 1.67 1.74 1.66 1.52 1.49 1.50 1.59 1.56 1.55 1.56 1.60 1.59 1.80 2.17 2.26
0.67 0.55 0.53 0.55 0.58 0.55 0.35 0.37 0.31 0.32 0.40 0.36 0.33 0.32 0.33 0.30 0.27 0.23 0.20 0.18 0.19 0.22 0.26 0.29 0.34 0.46 0.61 0.75 0.91 1.19 1.37 1.46 1.60 1.76 1.90 2.03 2.13 2.09 2.01 1.95 1.81 1.64 1.56 1.59 1.64 1.64 1.73 1.86 2.03
0.48 0.58 0.69 0.68 0.64 0.60 0.28 0.26 0.29 0.30 0.32 0.34 0.34 0.36 0.35 0.30 0.25 0.24 0.25 0.26 0.29 0.36 0.40 0.44 0.54 0.63 0.69 0.80 0.92 1.06 1.13 1.27 1.45 1.60 1.78 1.93 2.04 2.06 2.00 1.87 1.65 1.49 1.44 1.51 1.64 1.68 1.72 1.72 1.80
0.45 0.66 0.93 0.97 0.90 0.62 0.23 0.22 0.26 0.22 0.21 0.24 0.26 0.25 0.25 0.27 0.27 0.27 0.26 0.32 0.36 0.44 0.48 0.56 0.64 0.73 0.76 0.82 0.90 0.97 1.02 1.14 1.29 1.33 1.38 1.42 1.43 1.46 1.48 1.48 1.46 1.41 1.34 1.44 1.63 1.74 1.76 1.74 1.72
0.38 0.46 0.76 0.90 0.72 0.49 0.25 0.30 0.31 0.19 0.15 0.12 0.14 0.18 0.22 0.30 0.32 0.32 0.30 0.39 0.46 0.54 0.64 0.71 0.77 0.80 0.82 0.89 0.97 0.95 1.02 1.14 1.23 1.16 1.11 1.15 1.20 1.27 1.27 1.33 1.36 1.35 1.36 1.40 1.51 1.66 1.75 1.74 1.66
0.36 0.37 0.42 0.51 0.40 0.41 0.30 0.29 0.22 0.11 0.10 0.09 0.14 0.22 0.30 0.39 0.41 0.43 0.44 0.50 0.56 0.64 0.73 0.78 0.83 0.86 0.93 0.94 1.00 1.12 1.15 1.16 1.13 1.01 0.95 0.98 0.95 0.96 1.06 1.16 1.23 1.20 1.21 1.26 1.38 1.55 1.60 1.69 1.73
0.30 0.38 0.45 0.50 0.54 0.51 0.34 0.30 0.25 0.16 0.15 0.19 0.26 0.34 0.45 0.55 0.58 0.59 0.65 0.68 0.71 0.74 0.80 0.84 0.89 0.95 0.97 0.97 1.06 1.23 1.17 0.95 0.78 0.67 0.71 0.76 0.80 0.84 0.91 0.88 0.85 0.83 0.89 0.92 1.04 1.24 1.34 1.40 1.48
0.30 0.29 0.35 0.42 0.42 0.61 0.73 0.73 0.60 0.55 0.45 0.49 0.51 0.59 0.75 0.78 0.80 0.79 0.82 0.86 0.82 0.82 0.87 0.87 0.90 1.01 1.03 0.97 1.06 1.09 0.87 0.63 0.51 0.49 0.47 0.45 0.47 0.53 0.61 0.57 0.54 0.60 0.66 0.63 0.72 0.83 0.95 1.07 1.16
0.23 0.23 0.24 0.41 0.44 0.50 0.82 0.88 0.77 0.79 0.76 0.86 0.92 1.07 1.02 0.97 0.96 0.88 0.83 0.83 0.73 0.71 0.78 0.82 0.92 0.98 0.89 0.84 0.83 0.68 0.49 0.39 0.36 0.32 0.26 0.22 0.22 0.23 0.30 0.33 0.34 0.42 0.54 0.56 0.62 0.67 0.70 0.80 0.89